Time,TemperatureF,DewpointF,PressureIn,WindDirection,WindDirectionDegrees,WindSpeedMPH,WindSpeedGustMPH,Humidity,HourlyPrecipIn,Conditions,Clouds,dailyrainin,SoftwareType,DateUTC
2013-02-05 00:00:00,41.9,25.1,28.91,SSW,197,0.0,0.0,51,0.00,,SKC,0.00,VWS V14.00,2013-02-05 05:00:00,
2013-02-05 00:07:00,41.7,24.9,28.88,SSW,197,0.0,0.0,51,0.00,,SKC,0.00,VWS V14.00,2013-02-05 05:07:00,
2013-02-05 00:10:00,41.7,24.9,28.88,SSW,197,0.0,0.0,51,0.00,,SKC,0.00,VWS V14.00,2013-02-05 05:10:00,
2013-02-05 00:17:00,41.7,24.9,28.88,WSW,252,0.0,0.0,51,0.00,,SKC,0.00,VWS V14.00,2013-02-05 05:17:00,
2013-02-05 00:22:00,41.7,24.9,28.88,WSW,251,0.0,0.0,51,0.00,,SKC,0.00,VWS V14.00,2013-02-05 05:22:00,
2013-02-05 00:27:00,41.7,24.9,28.88,WSW,251,0.0,0.0,51,0.00,,SKC,0.00,VWS V14.00,2013-02-05 05:27:00,
2013-02-05 00:32:00,41.7,24.9,28.88,WSW,251,0.0,0.0,51,0.00,,SKC,0.00,VWS V14.00,2013-02-05 05:32:00,
2013-02-05 00:37:00,41.7,24.9,28.88,WSW,251,0.0,0.0,51,0.00,,SKC,0.00,VWS V14.00,2013-02-05 05:37:00,
2013-02-05 00:42:00,41.7,24.9,28.88,WSW,243,0.0,0.0,51,0.00,,SKC,0.00,VWS V14.00,2013-02-05 05:42:00,
2013-02-05 00:47:00,41.7,24.9,28.88,SW,218,0.0,0.0,51,0.00,,SKC,0.00,VWS V14.00,2013-02-05 05:47:00,
2013-02-05 00:52:00,41.7,24.9,28.88,SW,219,0.0,0.0,51,0.00,,SKC,0.00,VWS V14.00,2013-02-05 05:52:00,
2013-02-05 00:57:00,41.7,24.9,28.88,SW,234,0.0,0.0,51,0.00,,SKC,0.00,VWS V14.00,2013-02-05 05:57:00,
2013-02-05 01:02:00,41.7,24.9,28.88,SW,227,0.0,0.0,51,0.00,,SKC,0.00,VWS V14.00,2013-02-05 06:02:00,
2013-02-05 01:07:00,41.7,24.9,28.88,SW,227,0.0,0.0,51,0.00,,SKC,0.00,VWS V14.00,2013-02-05 06:07:00,
2013-02-05 01:12:00,41.7,24.9,28.88,WSW,252,0.0,0.0,51,0.00,,SKC,0.00,VWS V14.00,2013-02-05 06:12:00,
2013-02-05 01:17:00,41.9,25.1,28.88,SW,232,0.0,4.0,51,0.00,,SKC,0.00,VWS V14.00,2013-02-05 06:17:00,
2013-02-05 01:22:00,41.9,25.1,28.88,SW,232,0.0,0.0,51,0.00,,SKC,0.00,VWS V14.00,2013-02-05 06:22:00,
2013-02-05 01:27:00,41.9,25.1,28.88,SW,232,0.0,0.0,51,0.00,,SKC,0.00,VWS V14.00,2013-02-05 06:27:00,
2013-02-05 01:32:00,42.1,25.3,28.88,SW,232,0.0,0.0,51,0.00,,SKC,0.00,VWS V14.00,2013-02-05 06:32:00,
2013-02-05 01:37:00,42.1,25.3,28.88,SSW,205,0.0,0.0,51,0.00,,SKC,0.00,VWS V14.00,2013-02-05 06:37:00,
2013-02-05 01:42:00,42.1,25.3,28.88,SW,234,0.0,0.0,51,0.00,,SKC,0.00,VWS V14.00,2013-02-05 06:42:00,
2013-02-05 01:47:00,42.1,25.3,28.88,SW,234,0.0,0.0,51,0.00,,SKC,0.00,VWS V14.00,2013-02-05 06:47:00,
2013-02-05 01:52:00,42.1,25.3,28.88,SW,217,0.0,0.0,51,0.00,,SKC,0.00,VWS V14.00,2013-02-05 06:52:00,
2013-02-05 01:57:00,42.1,25.3,28.88,NW,322,0.0,0.0,51,0.00,,SKC,0.00,VWS V14.00,2013-02-05 06:57:00,
2013-02-05 02:02:00,42.1,25.3,28.88,SSW,205,0.0,0.0,51,0.00,,SKC,0.00,VWS V14.00,2013-02-05 07:02:00,
2013-02-05 02:07:00,42.1,25.3,28.88,SSW,205,0.0,0.0,51,0.00,,SKC,0.00,VWS V14.00,2013-02-05 07:07:00,
2013-02-05 02:12:00,42.1,25.3,28.88,SSW,205,0.0,0.0,51,0.00,,SKC,0.00,VWS V14.00,2013-02-05 07:12:00,
2013-02-05 02:17:00,42.1,25.3,28.88,SSW,205,0.0,0.0,51,0.00,,SKC,0.00,VWS V14.00,2013-02-05 07:17:00,
2013-02-05 02:22:00,42.3,25.4,28.88,SSW,193,0.0,0.0,51,0.00,,SKC,0.00,VWS V14.00,2013-02-05 07:22:00,
2013-02-05 02:27:00,42.3,25.4,28.88,SSW,192,0.0,0.0,51,0.00,,SKC,0.00,VWS V14.00,2013-02-05 07:27:00,
2013-02-05 02:32:00,42.3,25.4,28.88,South,175,0.0,0.0,51,0.00,,SKC,0.00,VWS V14.00,2013-02-05 07:32:00,
2013-02-05 02:37:00,42.3,25.4,28.88,South,172,0.0,2.2,51,0.00,,SKC,0.00,VWS V14.00,2013-02-05 07:37:00,
2013-02-05 02:42:00,42.3,25.4,28.88,South,172,0.0,0.0,51,0.00,,SKC,0.00,VWS V14.00,2013-02-05 07:42:00,
2013-02-05 02:47:00,42.3,25.4,28.88,South,172,0.0,0.0,51,0.00,,SKC,0.00,VWS V14.00,2013-02-05 07:47:00,
2013-02-05 02:52:00,42.1,25.3,28.88,South,172,0.0,0.0,51,0.00,,SKC,0.00,VWS V14.00,2013-02-05 07:52:00,
2013-02-05 02:57:00,42.1,25.3,28.88,South,172,0.0,0.0,51,0.00,,SKC,0.00,VWS V14.00,2013-02-05 07:57:00,
2013-02-05 03:02:00,42.1,25.3,28.88,SE,142,0.0,0.0,51,0.00,,SKC,0.00,VWS V14.00,2013-02-05 08:02:00,
2013-02-05 03:07:00,42.3,25.4,28.88,SSE,165,0.0,0.0,51,0.00,,SKC,0.00,VWS V14.00,2013-02-05 08:07:00,
2013-02-05 03:12:00,42.3,25.4,28.88,SSE,165,0.0,0.0,51,0.00,,SKC,0.00,VWS V14.00,2013-02-05 08:12:00,
2013-02-05 03:17:00,42.1,25.3,28.88,SSE,165,0.0,0.0,51,0.00,,SKC,0.00,VWS V14.00,2013-02-05 08:17:00,
2013-02-05 03:22:00,42.1,25.3,28.88,SSE,165,0.0,0.0,51,0.00,,SKC,0.00,VWS V14.00,2013-02-05 08:22:00,
2013-02-05 03:27:00,42.1,25.3,28.88,SSE,165,0.0,0.0,51,0.00,,SKC,0.00,VWS V14.00,2013-02-05 08:27:00,
2013-02-05 03:32:00,42.3,25.4,28.88,SSE,165,0.0,0.0,51,0.00,,SKC,0.00,VWS V14.00,2013-02-05 08:32:00,
2013-02-05 03:37:00,42.1,25.3,28.88,SSE,165,0.0,0.0,51,0.00,,SKC,0.00,VWS V14.00,2013-02-05 08:37:00,
2013-02-05 03:42:00,42.1,25.3,28.88,SSE,165,0.0,0.0,51,0.00,,SKC,0.00,VWS V14.00,2013-02-05 08:42:00,
2013-02-05 03:47:00,42.1,25.3,28.88,SSE,165,0.0,0.0,51,0.00,,SKC,0.00,VWS V14.00,2013-02-05 08:47:00,
2013-02-05 03:52:00,42.1,25.3,28.88,SSE,165,0.0,0.0,51,0.00,,SKC,0.00,VWS V14.00,2013-02-05 08:52:00,
2013-02-05 03:57:00,42.1,25.3,28.88,SSE,165,0.0,0.0,51,0.00,,SKC,0.00,VWS V14.00,2013-02-05 08:57:00,
2013-02-05 04:02:00,42.1,25.3,28.88,SSE,165,0.0,0.0,51,0.00,,SKC,0.00,VWS V14.00,2013-02-05 09:02:00,
2013-02-05 04:07:00,42.1,25.3,28.88,SSE,165,0.0,0.0,51,0.00,,SKC,0.00,VWS V14.00,2013-02-05 09:07:00,
2013-02-05 04:12:00,42.1,25.3,28.88,SSE,165,0.0,0.0,51,0.00,,SKC,0.00,VWS V14.00,2013-02-05 09:12:00,
2013-02-05 04:17:00,42.3,25.4,28.88,SSE,165,0.0,0.0,51,0.00,,SKC,0.00,VWS V14.00,2013-02-05 09:17:00,
2013-02-05 04:22:00,42.3,25.4,28.88,SSE,165,0.0,0.0,51,0.00,,SKC,0.00,VWS V14.00,2013-02-05 09:22:00,
2013-02-05 04:27:00,42.3,25.9,28.88,SE,131,0.0,0.0,52,0.00,,SKC,0.00,VWS V14.00,2013-02-05 09:27:00,
2013-02-05 04:32:00,42.3,25.9,28.88,SSE,164,0.0,0.0,52,0.00,,SKC,0.00,VWS V14.00,2013-02-05 09:32:00,
2013-02-05 04:37:00,42.3,25.9,28.88,SSE,165,2.7,2.7,52,0.00,,SKC,0.00,VWS V14.00,2013-02-05 09:37:00,
2013-02-05 04:48:00,42.1,25.7,28.88,SW,214,3.2,4.0,52,0.00,,SKC,0.00,VWS V14.00,2013-02-05 09:48:00,
2013-02-05 04:53:00,42.1,25.7,28.88,SSW,198,0.0,3.6,52,0.00,,SKC,0.00,VWS V14.00,2013-02-05 09:53:00,
2013-02-05 04:58:00,42.1,26.2,28.88,SSW,213,0.0,3.6,53,0.00,,SKC,0.00,VWS V14.00,2013-02-05 09:58:00,
2013-02-05 05:03:00,42.1,26.2,28.88,SSW,199,0.0,3.6,53,0.00,,SKC,0.00,VWS V14.00,2013-02-05 10:03:00,
2013-02-05 05:08:00,41.9,26.0,28.88,SSW,200,0.0,4.0,53,0.00,,SKC,0.00,VWS V14.00,2013-02-05 10:08:00,
2013-02-05 05:13:00,41.9,26.0,28.88,SSE,148,0.0,0.0,53,0.00,,SKC,0.00,VWS V14.00,2013-02-05 10:13:00,
2013-02-05 05:18:00,41.7,25.9,28.91,SSE,148,0.0,0.0,53,0.00,,SKC,0.00,VWS V14.00,2013-02-05 10:18:00,
2013-02-05 05:23:00,41.7,26.3,28.91,SSE,148,0.0,0.0,54,0.00,,SKC,0.00,VWS V14.00,2013-02-05 10:23:00,
2013-02-05 05:28:00,41.7,26.3,28.91,SE,145,0.0,0.0,54,0.00,,SKC,0.00,VWS V14.00,2013-02-05 10:28:00,
2013-02-05 05:33:00,41.7,26.8,28.91,SW,221,3.2,3.2,55,0.00,,SKC,0.00,VWS V14.00,2013-02-05 10:33:00,
2013-02-05 05:38:00,41.7,26.8,28.91,SSW,210,0.0,3.1,55,0.00,,SKC,0.00,VWS V14.00,2013-02-05 10:38:00,
2013-02-05 05:43:00,41.7,26.8,28.91,SW,231,0.0,2.7,55,0.00,,SKC,0.00,VWS V14.00,2013-02-05 10:43:00,
2013-02-05 05:48:00,41.7,26.8,28.91,SW,223,0.0,2.7,55,0.00,,SKC,0.00,VWS V14.00,2013-02-05 10:48:00,
2013-02-05 05:53:00,41.7,26.8,28.91,SW,218,0.0,0.0,55,0.00,,SKC,0.00,VWS V14.00,2013-02-05 10:53:00,
2013-02-05 05:58:00,41.7,27.2,28.91,SW,220,0.0,3.6,56,0.00,,SKC,0.00,VWS V14.00,2013-02-05 10:58:00,
2013-02-05 06:03:00,41.7,27.2,28.91,SSW,204,3.2,4.0,56,0.00,,SKC,0.00,VWS V14.00,2013-02-05 11:03:00,
2013-02-05 06:08:00,41.7,27.2,28.91,SSW,206,0.0,4.0,56,0.00,,SKC,0.00,VWS V14.00,2013-02-05 11:08:00,
2013-02-05 06:13:00,41.7,27.6,28.91,South,187,0.0,2.7,57,0.00,,SKC,0.00,VWS V14.00,2013-02-05 11:13:00,
2013-02-05 06:18:00,41.5,27.5,28.91,SW,221,3.8,3.8,57,0.00,,SKC,0.00,VWS V14.00,2013-02-05 11:18:00,
2013-02-05 06:23:00,41.5,27.9,28.91,SSE,168,3.8,3.8,58,0.00,,SKC,0.00,VWS V14.00,2013-02-05 11:23:00,
2013-02-05 06:28:00,41.5,27.9,28.91,South,181,0.0,4.0,58,0.00,,SKC,0.00,VWS V14.00,2013-02-05 11:28:00,
2013-02-05 06:33:00,41.5,28.3,28.91,SW,225,3.2,3.2,59,0.00,,SKC,0.00,VWS V14.00,2013-02-05 11:33:00,
2013-02-05 06:38:00,41.5,28.3,28.91,SE,143,0.0,4.9,59,0.00,,SKC,0.00,VWS V14.00,2013-02-05 11:38:00,
2013-02-05 06:43:00,41.5,28.3,28.91,SSW,197,0.0,0.0,59,0.00,,SKC,0.00,VWS V14.00,2013-02-05 11:43:00,
2013-02-05 06:48:00,41.5,28.7,28.91,SSW,209,0.0,3.6,60,0.00,,SKC,0.00,VWS V14.00,2013-02-05 11:48:00,
2013-02-05 06:53:00,41.5,28.7,28.91,South,187,0.0,0.0,60,0.00,,SKC,0.00,VWS V14.00,2013-02-05 11:53:00,
2013-02-05 06:58:00,41.5,28.7,28.91,SW,215,0.0,0.0,60,0.00,,SKC,0.00,VWS V14.00,2013-02-05 11:58:00,
2013-02-05 07:03:00,41.5,28.7,28.91,SSW,210,0.0,0.0,60,0.00,,SKC,0.00,VWS V14.00,2013-02-05 12:03:00,
2013-02-05 07:08:00,41.5,28.7,28.91,SSE,151,0.0,0.0,60,0.00,,SKC,0.00,VWS V14.00,2013-02-05 12:08:00,
2013-02-05 07:13:00,41.5,28.7,28.91,South,190,0.0,2.2,60,0.00,,SKC,0.00,VWS V14.00,2013-02-05 12:13:00,
2013-02-05 07:18:00,41.5,29.1,28.91,SE,146,0.0,2.2,61,0.00,,SKC,0.00,VWS V14.00,2013-02-05 12:18:00,
2013-02-05 07:23:00,41.5,29.1,28.91,SSW,196,0.0,3.6,61,0.00,,SKC,0.00,VWS V14.00,2013-02-05 12:23:00,
2013-02-05 07:28:00,41.7,29.3,28.91,SSW,202,0.0,3.6,61,0.00,,SKC,0.00,VWS V14.00,2013-02-05 12:28:00,
2013-02-05 07:33:00,41.7,29.3,28.91,SSW,204,0.0,0.0,61,0.00,,SKC,0.00,VWS V14.00,2013-02-05 12:33:00,
2013-02-05 07:38:00,41.9,29.9,28.91,SW,218,0.0,0.0,62,0.00,,SKC,0.00,VWS V14.00,2013-02-05 12:38:00,
2013-02-05 07:43:00,41.9,29.9,28.91,SSE,167,0.0,3.1,62,0.00,,SKC,0.00,VWS V14.00,2013-02-05 12:43:00,
2013-02-05 07:48:00,42.1,30.0,28.91,South,176,0.0,3.1,62,0.00,,SKC,0.00,VWS V14.00,2013-02-05 12:48:00,
2013-02-05 07:53:00,42.1,30.0,28.91,South,177,0.0,3.6,62,0.00,,SKC,0.00,VWS V14.00,2013-02-05 12:53:00,
2013-02-05 07:58:00,42.1,30.0,28.91,SSW,212,0.0,5.4,62,0.00,,SKC,0.00,VWS V14.00,2013-02-05 12:58:00,
2013-02-05 08:03:00,42.1,30.4,28.91,SW,235,0.0,5.4,63,0.00,,SKC,0.00,VWS V14.00,2013-02-05 13:03:00,
2013-02-05 08:08:00,42.3,30.6,28.91,SW,220,0.0,5.4,63,0.00,,SKC,0.00,VWS V14.00,2013-02-05 13:08:00,
2013-02-05 08:13:00,42.3,30.6,28.91,WSW,237,0.0,3.6,63,0.00,,SKC,0.00,VWS V14.00,2013-02-05 13:13:00,
2013-02-05 08:18:00,42.3,30.6,28.94,SW,218,0.0,3.6,63,0.00,,SKC,0.00,VWS V14.00,2013-02-05 13:18:00,
2013-02-05 08:23:00,42.4,30.8,28.94,SSW,194,0.0,0.0,63,0.00,,SKC,0.00,VWS V14.00,2013-02-05 13:23:00,
2013-02-05 08:28:00,42.4,31.1,28.94,SW,229,0.0,0.0,64,0.00,,SKC,0.00,VWS V14.00,2013-02-05 13:28:00,
2013-02-05 08:33:00,42.4,31.1,28.91,SW,220,0.0,0.0,64,0.00,,SKC,0.00,VWS V14.00,2013-02-05 13:33:00,
2013-02-05 08:38:00,42.6,31.3,28.91,SW,214,0.0,0.0,64,0.00,,SKC,0.00,VWS V14.00,2013-02-05 13:38:00,
2013-02-05 08:43:00,42.8,31.5,28.91,SW,234,0.0,4.0,64,0.00,,SKC,0.00,VWS V14.00,2013-02-05 13:43:00,
2013-02-05 08:48:00,42.8,31.5,28.94,SW,229,0.0,4.0,64,0.00,,SKC,0.00,VWS V14.00,2013-02-05 13:48:00,
2013-02-05 08:53:00,42.8,31.5,28.94,SW,235,0.0,3.6,64,0.00,,SKC,0.00,VWS V14.00,2013-02-05 13:53:00,
2013-02-05 08:58:00,43.0,32.0,28.94,SSW,205,0.0,3.6,65,0.00,,SKC,0.00,VWS V14.00,2013-02-05 13:58:00,
2013-02-05 09:03:00,43.0,31.6,28.94,SSW,207,3.2,5.4,64,0.00,,SKC,0.00,VWS V14.00,2013-02-05 14:03:00,
2013-02-05 09:08:00,43.2,32.2,28.94,SSW,194,0.0,5.4,65,0.00,,SKC,0.00,VWS V14.00,2013-02-05 14:08:00,
2013-02-05 09:13:00,43.3,32.4,28.94,SSW,193,0.0,0.0,65,0.00,,SKC,0.00,VWS V14.00,2013-02-05 14:13:00,
2013-02-05 09:18:00,43.5,32.5,28.94,SSW,200,0.0,0.0,65,0.00,,SKC,0.00,VWS V14.00,2013-02-05 14:18:00,
2013-02-05 09:23:00,43.5,32.5,28.94,WSW,238,0.0,0.0,65,0.00,,SKC,0.00,VWS V14.00,2013-02-05 14:23:00,
2013-02-05 09:28:00,43.5,32.5,28.94,WSW,238,0.0,0.0,65,0.00,,SKC,0.00,VWS V14.00,2013-02-05 14:28:00,
2013-02-05 09:33:00,43.5,32.5,28.94,WSW,238,0.0,0.0,65,0.00,,SKC,0.00,VWS V14.00,2013-02-05 14:33:00,
2013-02-05 09:38:00,43.5,32.5,28.94,SSW,207,0.0,0.0,65,0.00,,SKC,0.00,VWS V14.00,2013-02-05 14:38:00,
2013-02-05 09:43:00,43.7,32.7,28.94,SW,214,0.0,3.1,65,0.00,,SKC,0.00,VWS V14.00,2013-02-05 14:43:00,
2013-02-05 09:48:00,43.9,32.9,28.94,SSW,211,0.0,3.1,65,0.00,,SKC,0.00,VWS V14.00,2013-02-05 14:48:00,
2013-02-05 09:53:00,43.9,33.3,28.94,SW,216,0.0,0.0,66,0.00,,SKC,0.00,VWS V14.00,2013-02-05 14:53:00,
2013-02-05 09:58:00,44.1,33.4,28.94,SW,236,0.0,3.1,66,0.00,,SKC,0.00,VWS V14.00,2013-02-05 14:58:00,
2013-02-05 10:03:00,44.4,33.8,28.94,SSW,206,0.0,2.7,66,0.00,,SKC,0.00,VWS V14.00,2013-02-05 15:03:00,
2013-02-05 10:08:00,44.8,34.1,28.94,SW,230,0.0,4.0,66,0.00,,SKC,0.00,VWS V14.00,2013-02-05 15:08:00,
2013-02-05 10:13:00,45.3,34.6,28.94,WSW,246,0.0,0.0,66,0.00,,SKC,0.00,VWS V14.00,2013-02-05 15:13:00,
2013-02-05 10:18:00,45.7,35.4,28.97,SSW,213,2.7,4.0,67,0.00,,SKC,0.00,VWS V14.00,2013-02-05 15:18:00,
2013-02-05 10:23:00,46.2,35.9,28.97,South,181,3.2,5.8,67,0.00,,SKC,0.00,VWS V14.00,2013-02-05 15:23:00,
2013-02-05 10:28:00,46.6,36.2,28.97,SW,218,2.7,5.8,67,0.00,,SKC,0.00,VWS V14.00,2013-02-05 15:28:00,
2013-02-05 10:33:00,47.3,36.9,28.97,West,259,3.2,6.7,67,0.00,,SKC,0.00,VWS V14.00,2013-02-05 15:33:00,
2013-02-05 10:38:00,48.0,37.6,28.97,WSW,239,2.7,6.7,67,0.04,,SKC,0.04,VWS V14.00,2013-02-05 15:38:00,
2013-02-05 10:43:00,48.7,38.3,28.97,SSW,204,6.4,6.4,67,0.04,,SKC,0.04,VWS V14.00,2013-02-05 15:43:00,
2013-02-05 10:48:00,49.5,39.0,28.97,SSW,212,5.9,6.3,67,0.04,,SKC,0.04,VWS V14.00,2013-02-05 15:48:00,
2013-02-05 10:53:00,49.8,38.9,28.97,West,272,2.7,5.8,66,0.04,,SKC,0.04,VWS V14.00,2013-02-05 15:53:00,
2013-02-05 10:58:00,50.2,39.3,28.97,SSW,213,3.8,5.8,66,0.04,,SKC,0.04,VWS V14.00,2013-02-05 15:58:00,
2013-02-05 11:04:00,50.4,39.1,28.97,WSW,243,3.8,7.6,65,0.04,,SKC,0.04,VWS V14.00,2013-02-05 16:04:00,
2013-02-05 11:09:00,50.4,38.7,28.97,SW,234,4.3,7.6,64,0.04,,SKC,0.04,VWS V14.00,2013-02-05 16:09:00,
2013-02-05 11:14:00,50.4,38.3,28.97,SW,222,3.2,8.7,63,0.04,,SKC,0.04,VWS V14.00,2013-02-05 16:14:00,
2013-02-05 11:19:00,50.5,38.4,28.94,WSW,256,0.0,8.7,63,0.04,,SKC,0.04,VWS V14.00,2013-02-05 16:19:00,
2013-02-05 11:24:00,50.9,38.8,28.94,WSW,244,5.9,6.3,63,0.04,,SKC,0.04,VWS V14.00,2013-02-05 16:24:00,
2013-02-05 11:29:00,51.4,39.3,28.94,SW,234,3.8,6.3,63,0.04,,SKC,0.04,VWS V14.00,2013-02-05 16:29:00,
2013-02-05 11:34:00,51.4,39.3,28.97,SSW,194,7.0,7.0,63,0.04,,SKC,0.04,VWS V14.00,2013-02-05 16:34:00,
2013-02-05 11:39:00,51.4,38.9,28.97,SW,223,7.5,7.5,62,0.04,,SKC,0.04,VWS V14.00,2013-02-05 16:39:00,
2013-02-05 11:44:00,51.6,39.0,28.97,SW,229,3.2,6.3,62,0.00,,SKC,0.04,VWS V14.00,2013-02-05 16:44:00,
2013-02-05 11:49:00,52.0,39.4,28.94,WSW,239,3.8,6.3,62,0.00,,SKC,0.04,VWS V14.00,2013-02-05 16:49:00,
2013-02-05 11:54:00,52.5,39.5,28.94,SW,230,3.8,6.7,61,0.00,,SKC,0.04,VWS V14.00,2013-02-05 16:54:00,
2013-02-05 11:59:00,52.9,39.8,28.94,WSW,254,0.0,6.7,61,0.00,,SKC,0.04,VWS V14.00,2013-02-05 16:59:00,
2013-02-05 12:04:00,52.7,39.2,28.97,NW,312,0.0,3.1,60,0.00,,SKC,0.04,VWS V14.00,2013-02-05 17:04:00,
2013-02-05 12:09:00,52.3,38.5,28.97,SW,225,0.0,5.8,59,0.00,,SKC,0.04,VWS V14.00,2013-02-05 17:09:00,
2013-02-05 12:14:00,52.2,38.7,28.97,SW,230,0.0,2.7,60,0.00,,SKC,0.04,VWS V14.00,2013-02-05 17:14:00,
2013-02-05 12:19:00,52.2,38.7,28.97,SSW,211,4.3,4.9,60,0.00,,SKC,0.04,VWS V14.00,2013-02-05 17:19:00,
2013-02-05 12:24:00,52.3,38.9,28.97,WSW,237,0.0,4.0,60,0.00,,SKC,0.04,VWS V14.00,2013-02-05 17:24:00,
2013-02-05 12:29:00,53.2,39.7,28.97,WSW,254,3.2,4.0,60,0.00,,SKC,0.04,VWS V14.00,2013-02-05 17:29:00,
2013-02-05 12:34:00,54.1,40.6,28.94,SW,220,6.4,6.4,60,0.00,,SKC,0.04,VWS V14.00,2013-02-05 17:34:00,
2013-02-05 12:39:00,54.9,41.2,28.94,NW,317,4.3,5.4,60,0.00,,SKC,0.04,VWS V14.00,2013-02-05 17:39:00,
2013-02-05 12:44:00,55.4,40.9,28.94,South,175,2.7,4.9,58,0.00,,SKC,0.04,VWS V14.00,2013-02-05 17:44:00,
2013-02-05 12:49:00,55.9,41.4,28.94,SW,216,6.4,7.2,58,0.00,,SKC,0.04,VWS V14.00,2013-02-05 17:49:00,
2013-02-05 12:54:00,55.9,40.9,28.94,WSW,258,0.0,5.8,57,0.00,,SKC,0.04,VWS V14.00,2013-02-05 17:54:00,
2013-02-05 12:59:00,55.8,40.8,28.94,SW,223,2.7,5.8,57,0.00,,SKC,0.04,VWS V14.00,2013-02-05 17:59:00,
2013-02-05 13:04:00,55.2,39.8,28.94,WSW,238,0.0,3.6,56,0.00,,SKC,0.04,VWS V14.00,2013-02-05 18:04:00,
2013-02-05 13:09:00,55.2,40.3,28.94,SW,216,2.7,5.8,57,0.00,,SKC,0.04,VWS V14.00,2013-02-05 18:09:00,
2013-02-05 13:14:00,55.8,40.3,28.94,SW,225,0.0,6.3,56,0.00,,SKC,0.04,VWS V14.00,2013-02-05 18:14:00,
2013-02-05 13:19:00,55.9,40.5,28.91,SW,230,4.3,6.3,56,0.00,,SKC,0.04,VWS V14.00,2013-02-05 18:19:00,
2013-02-05 13:24:00,55.9,40.0,28.91,NW,317,0.0,6.3,55,0.00,,SKC,0.04,VWS V14.00,2013-02-05 18:24:00,
2013-02-05 13:29:00,56.1,40.7,28.91,SW,236,0.0,6.3,56,0.00,,SKC,0.04,VWS V14.00,2013-02-05 18:29:00,
2013-02-05 13:34:00,56.1,40.2,28.91,WSW,237,3.8,3.8,55,0.00,,SKC,0.04,VWS V14.00,2013-02-05 18:34:00,
2013-02-05 13:39:00,55.9,39.1,28.91,NW,306,3.8,6.3,53,0.00,,SKC,0.04,VWS V14.00,2013-02-05 18:39:00,
2013-02-05 13:44:00,56.1,39.2,28.91,SW,234,6.4,6.4,53,0.00,,SKC,0.04,VWS V14.00,2013-02-05 18:44:00,
2013-02-05 13:49:00,55.9,39.1,28.91,SW,233,0.0,5.4,53,0.00,,SKC,0.04,VWS V14.00,2013-02-05 18:49:00,
2013-02-05 13:54:00,56.5,40.0,28.91,SSW,203,3.8,6.3,54,0.00,,SKC,0.04,VWS V14.00,2013-02-05 18:54:00,
2013-02-05 13:59:00,57.2,40.2,28.91,SW,221,4.8,6.3,53,0.00,,SKC,0.04,VWS V14.00,2013-02-05 18:59:00,
2013-02-05 14:04:00,57.6,40.6,28.91,North,349,0.0,6.3,53,0.00,,SKC,0.04,VWS V14.00,2013-02-05 19:04:00,
2013-02-05 14:09:00,57.9,39.9,28.91,SSW,200,0.0,6.3,51,0.00,,SKC,0.04,VWS V14.00,2013-02-05 19:09:00,
2013-02-05 14:14:00,58.1,40.6,28.91,SW,221,0.0,5.4,52,0.00,,SKC,0.04,VWS V14.00,2013-02-05 19:14:00,
2013-02-05 14:19:00,58.5,40.9,28.88,SSW,207,6.4,6.4,52,0.00,,SKC,0.04,VWS V14.00,2013-02-05 19:19:00,
2013-02-05 14:24:00,58.8,41.2,28.88,NW,324,0.0,6.3,52,0.00,,SKC,0.04,VWS V14.00,2013-02-05 19:24:00,
2013-02-05 14:29:00,58.8,40.8,28.88,SSW,201,4.3,6.3,51,0.00,,SKC,0.04,VWS V14.00,2013-02-05 19:29:00,
2013-02-05 14:34:00,59.2,40.6,28.88,SW,232,5.9,6.3,50,0.00,,SKC,0.04,VWS V14.00,2013-02-05 19:34:00,
2013-02-05 14:39:00,59.2,41.1,28.88,WNW,291,4.8,6.3,51,0.00,,SKC,0.04,VWS V14.00,2013-02-05 19:39:00,
2013-02-05 14:44:00,59.2,40.6,28.88,SSW,213,3.2,4.0,50,0.00,,SKC,0.04,VWS V14.00,2013-02-05 19:44:00,
2013-02-05 14:49:00,59.2,40.6,28.88,WSW,241,0.0,5.8,50,0.00,,SKC,0.04,VWS V14.00,2013-02-05 19:49:00,
2013-02-05 14:54:00,59.2,40.6,28.88,SW,228,3.2,6.3,50,0.00,,SKC,0.04,VWS V14.00,2013-02-05 19:54:00,
2013-02-05 14:59:00,59.4,40.2,28.88,SW,229,5.9,6.3,49,0.00,,SKC,0.04,VWS V14.00,2013-02-05 19:59:00,
2013-02-05 15:04:00,59.5,40.4,28.91,SSW,199,7.5,8.1,49,0.00,,SKC,0.04,VWS V14.00,2013-02-05 20:04:00,
2013-02-05 15:09:00,59.7,40.5,28.91,South,169,3.8,8.1,49,0.00,,SKC,0.04,VWS V14.00,2013-02-05 20:09:00,
2013-02-05 15:14:00,59.5,40.4,28.91,WSW,254,3.8,4.9,49,0.00,,SKC,0.04,VWS V14.00,2013-02-05 20:14:00,
2013-02-05 15:19:00,59.5,39.8,28.88,SW,232,3.8,7.2,48,0.00,,SKC,0.04,VWS V14.00,2013-02-05 20:19:00,
2013-02-05 15:24:00,59.4,39.7,28.88,SW,226,0.0,5.8,48,0.00,,SKC,0.04,VWS V14.00,2013-02-05 20:24:00,
2013-02-05 15:29:00,59.2,39.5,28.88,SW,234,0.0,5.8,48,0.00,,SKC,0.04,VWS V14.00,2013-02-05 20:29:00,
2013-02-05 15:35:00,59.0,38.8,28.88,WSW,243,0.0,4.9,47,0.00,,SKC,0.04,VWS V14.00,2013-02-05 20:35:00,
2013-02-05 15:40:00,58.8,38.7,28.88,SW,214,0.0,0.0,47,0.00,,SKC,0.04,VWS V14.00,2013-02-05 20:40:00,
2013-02-05 15:45:00,58.8,39.2,28.88,SW,219,3.2,4.0,48,0.00,,SKC,0.04,VWS V14.00,2013-02-05 20:45:00,
2013-02-05 15:50:00,58.5,38.9,28.88,WSW,241,0.0,4.0,48,0.00,,SKC,0.04,VWS V14.00,2013-02-05 20:50:00,
2013-02-05 15:55:00,58.1,38.5,28.88,WNW,295,0.0,4.0,48,0.00,,SKC,0.04,VWS V14.00,2013-02-05 20:55:00,
2013-02-05 16:00:00,57.9,37.3,28.88,WSW,249,0.0,2.2,46,0.00,,SKC,0.04,VWS V14.00,2013-02-05 21:00:00,
2013-02-05 16:05:00,57.6,36.4,28.88,SSE,164,3.2,7.6,45,0.00,,SKC,0.04,VWS V14.00,2013-02-05 21:05:00,
2013-02-05 16:10:00,57.2,36.1,28.88,SW,222,0.0,0.0,45,0.00,,SKC,0.04,VWS V14.00,2013-02-05 21:10:00,
2013-02-05 16:15:00,56.8,36.3,28.88,SSW,209,0.0,0.0,46,0.00,,SKC,0.04,VWS V14.00,2013-02-05 21:15:00,
2013-02-05 16:20:00,56.8,36.8,28.88,SW,223,0.0,0.0,47,0.00,,SKC,0.04,VWS V14.00,2013-02-05 21:20:00,
2013-02-05 16:25:00,56.8,36.8,28.88,SW,221,0.0,3.6,47,0.00,,SKC,0.04,VWS V14.00,2013-02-05 21:25:00,
2013-02-05 16:30:00,56.8,36.8,28.88,SW,233,3.2,3.2,47,0.00,,SKC,0.04,VWS V14.00,2013-02-05 21:30:00,
2013-02-05 16:35:00,56.7,36.7,28.88,WSW,254,0.0,2.7,47,0.00,,SKC,0.04,VWS V14.00,2013-02-05 21:35:00,
2013-02-05 16:40:00,56.7,36.7,28.88,South,173,3.8,3.8,47,0.00,,SKC,0.04,VWS V14.00,2013-02-05 21:40:00,
2013-02-05 16:45:00,56.5,36.5,28.88,SSW,198,0.0,4.0,47,0.00,,SKC,0.04,VWS V14.00,2013-02-05 21:45:00,
2013-02-05 16:50:00,56.5,36.0,28.88,WSW,243,0.0,0.0,46,0.00,,SKC,0.04,VWS V14.00,2013-02-05 21:50:00,
2013-02-05 16:55:00,56.3,35.8,28.88,SW,221,0.0,2.7,46,0.00,,SKC,0.04,VWS V14.00,2013-02-05 21:55:00,
2013-02-05 17:00:00,56.1,36.2,28.88,SW,220,4.8,4.8,47,0.00,,SKC,0.04,VWS V14.00,2013-02-05 22:00:00,
2013-02-05 17:05:00,55.9,36.0,28.88,SW,220,3.8,4.0,47,0.00,,SKC,0.04,VWS V14.00,2013-02-05 22:05:00,
2013-02-05 17:10:00,55.8,35.8,28.88,SW,219,0.0,0.0,47,0.00,,SKC,0.04,VWS V14.00,2013-02-05 22:10:00,
2013-02-05 17:15:00,55.4,35.5,28.88,WSW,244,0.0,4.0,47,0.00,,SKC,0.04,VWS V14.00,2013-02-05 22:15:00,
2013-02-05 17:20:00,55.2,35.4,28.88,NW,318,0.0,0.0,47,0.00,,SKC,0.04,VWS V14.00,2013-02-05 22:20:00,
2013-02-05 17:25:00,55.0,35.2,28.88,NW,318,0.0,0.0,47,0.00,,SKC,0.04,VWS V14.00,2013-02-05 22:25:00,
2013-02-05 17:30:00,54.9,35.0,28.88,NW,318,0.0,0.0,47,0.00,,SKC,0.04,VWS V14.00,2013-02-05 22:30:00,
2013-02-05 17:35:00,54.7,34.9,28.88,SSW,202,0.0,0.0,47,0.00,,SKC,0.04,VWS V14.00,2013-02-05 22:35:00,
2013-02-05 17:40:00,54.5,34.7,28.88,SSW,197,0.0,0.0,47,0.00,,SKC,0.04,VWS V14.00,2013-02-05 22:40:00,
2013-02-05 17:45:00,54.3,34.5,28.88,SSW,211,0.0,3.6,47,0.00,,SKC,0.04,VWS V14.00,2013-02-05 22:45:00,
2013-02-05 17:50:00,54.0,34.2,28.88,SSE,163,0.0,0.0,47,0.00,,SKC,0.04,VWS V14.00,2013-02-05 22:50:00,
2013-02-05 17:55:00,53.8,34.0,28.88,SSE,164,0.0,0.0,47,0.00,,SKC,0.04,VWS V14.00,2013-02-05 22:55:00,
2013-02-05 18:00:00,53.4,34.2,28.88,SSE,164,0.0,0.0,48,0.00,,SKC,0.04,VWS V14.00,2013-02-05 23:00:00,
2013-02-05 18:05:00,53.1,33.9,28.88,SSE,164,0.0,0.0,48,0.00,,SKC,0.04,VWS V14.00,2013-02-05 23:05:00,
2013-02-05 18:10:00,52.9,33.7,28.88,SSE,164,0.0,0.0,48,0.00,,SKC,0.04,VWS V14.00,2013-02-05 23:10:00,
2013-02-05 18:15:00,52.5,33.4,28.88,SSE,164,0.0,0.0,48,0.00,,SKC,0.04,VWS V14.00,2013-02-05 23:15:00,
2013-02-05 18:20:00,52.2,33.1,28.88,SSE,164,0.0,0.0,48,0.00,,SKC,0.04,VWS V14.00,2013-02-05 23:20:00,
2013-02-05 18:25:00,51.8,32.8,28.88,SSE,164,0.0,0.0,48,0.00,,SKC,0.04,VWS V14.00,2013-02-05 23:25:00,
2013-02-05 18:30:00,51.4,32.4,28.88,SSE,164,0.0,0.0,48,0.00,,SKC,0.04,VWS V14.00,2013-02-05 23:30:00,
2013-02-05 18:35:00,50.9,31.9,28.88,SSE,164,0.0,0.0,48,0.00,,SKC,0.04,VWS V14.00,2013-02-05 23:35:00,
2013-02-05 18:40:00,50.5,31.6,28.88,SSE,164,0.0,0.0,48,0.00,,SKC,0.04,VWS V14.00,2013-02-05 23:40:00,
2013-02-05 18:45:00,50.4,31.9,28.88,SSE,164,0.0,0.0,49,0.00,,SKC,0.04,VWS V14.00,2013-02-05 23:45:00,
2013-02-05 18:50:00,50.0,31.6,28.88,SSE,164,0.0,0.0,49,0.00,,SKC,0.04,VWS V14.00,2013-02-05 23:50:00,
2013-02-05 18:55:00,50.0,31.6,28.88,SSE,164,0.0,0.0,49,0.00,,SKC,0.04,VWS V14.00,2013-02-05 23:55:00,
2013-02-05 19:00:00,49.6,31.3,28.88,SSE,164,0.0,0.0,49,0.00,,SKC,0.04,VWS V14.00,2013-02-06 00:00:00,
2013-02-05 19:05:00,49.3,31.0,28.91,SSE,164,0.0,0.0,49,0.00,,SKC,0.04,VWS V14.00,2013-02-06 00:05:00,
2013-02-05 19:10:00,48.9,31.1,28.91,SSE,164,0.0,0.0,50,0.00,,SKC,0.04,VWS V14.00,2013-02-06 00:10:00,
2013-02-05 19:15:00,48.7,31.0,28.91,SSE,164,0.0,0.0,50,0.00,,SKC,0.04,VWS V14.00,2013-02-06 00:15:00,
2013-02-05 19:20:00,48.6,30.8,28.91,SSE,164,0.0,0.0,50,0.00,,SKC,0.04,VWS V14.00,2013-02-06 00:20:00,
2013-02-05 19:25:00,48.2,30.5,28.91,SSE,164,0.0,0.0,50,0.00,,SKC,0.04,VWS V14.00,2013-02-06 00:25:00,
2013-02-05 19:30:00,47.8,30.6,28.91,SSE,164,0.0,0.0,51,0.00,,SKC,0.04,VWS V14.00,2013-02-06 00:30:00,
2013-02-05 19:35:00,47.7,30.4,28.91,SSE,164,0.0,0.0,51,0.00,,SKC,0.04,VWS V14.00,2013-02-06 00:35:00,
2013-02-05 19:40:00,47.3,30.1,28.91,SSE,164,0.0,0.0,51,0.00,,SKC,0.04,VWS V14.00,2013-02-06 00:40:00,
2013-02-05 19:45:00,47.1,29.9,28.91,SSE,164,0.0,0.0,51,0.00,,SKC,0.04,VWS V14.00,2013-02-06 00:45:00,
2013-02-05 19:50:00,46.9,30.2,28.91,SSE,164,0.0,0.0,52,0.00,,SKC,0.04,VWS V14.00,2013-02-06 00:50:00,
2013-02-05 19:55:00,46.8,30.1,28.91,SSE,164,0.0,0.0,52,0.00,,SKC,0.04,VWS V14.00,2013-02-06 00:55:00,
2013-02-05 20:00:00,46.6,29.9,28.91,SSE,164,0.0,0.0,52,0.00,,SKC,0.04,VWS V14.00,2013-02-06 01:00:00,
2013-02-05 20:05:00,46.4,29.8,28.91,SSE,164,0.0,0.0,52,0.00,,SKC,0.04,VWS V14.00,2013-02-06 01:05:00,
2013-02-05 20:10:00,46.2,30.0,28.91,SSE,164,0.0,0.0,53,0.00,,SKC,0.04,VWS V14.00,2013-02-06 01:10:00,
2013-02-05 20:15:00,45.9,29.7,28.91,SSE,164,0.0,0.0,53,0.00,,SKC,0.04,VWS V14.00,2013-02-06 01:15:00,
2013-02-05 20:20:00,45.7,29.5,28.91,SSE,164,0.0,0.0,53,0.00,,SKC,0.04,VWS V14.00,2013-02-06 01:20:00,
2013-02-05 20:25:00,45.5,29.4,28.91,SSE,164,0.0,0.0,53,0.00,,SKC,0.04,VWS V14.00,2013-02-06 01:25:00,
2013-02-05 20:30:00,45.1,29.0,28.91,SSE,164,0.0,0.0,53,0.00,,SKC,0.04,VWS V14.00,2013-02-06 01:30:00,
2013-02-05 20:36:00,45.0,29.3,28.91,SSE,164,0.0,0.0,54,0.00,,SKC,0.04,VWS V14.00,2013-02-06 01:36:00,
2013-02-05 20:41:00,44.6,29.0,28.91,SSE,164,0.0,0.0,54,0.00,,SKC,0.04,VWS V14.00,2013-02-06 01:41:00,
2013-02-05 20:46:00,44.4,28.8,28.91,SSE,164,0.0,0.0,54,0.00,,SKC,0.04,VWS V14.00,2013-02-06 01:46:00,
2013-02-05 20:51:00,44.2,28.7,28.94,SSE,164,0.0,0.0,54,0.00,,SKC,0.04,VWS V14.00,2013-02-06 01:51:00,
2013-02-05 20:56:00,44.1,28.9,28.94,SSE,164,0.0,0.0,55,0.00,,SKC,0.04,VWS V14.00,2013-02-06 01:56:00,
2013-02-05 21:01:00,43.7,28.6,28.94,SSE,164,0.0,0.0,55,0.00,,SKC,0.04,VWS V14.00,2013-02-06 02:01:00,
2013-02-05 21:06:00,43.5,28.4,28.94,SSE,164,0.0,0.0,55,0.00,,SKC,0.04,VWS V14.00,2013-02-06 02:06:00,
2013-02-05 21:11:00,43.3,28.3,28.94,SSE,164,0.0,0.0,55,0.00,,SKC,0.04,VWS V14.00,2013-02-06 02:11:00,
2013-02-05 21:16:00,43.0,27.9,28.94,SSE,164,0.0,0.0,55,0.00,,SKC,0.04,VWS V14.00,2013-02-06 02:16:00,
2013-02-05 21:21:00,42.6,28.0,28.94,SSE,164,0.0,0.0,56,0.00,,SKC,0.04,VWS V14.00,2013-02-06 02:21:00,
2013-02-05 21:26:00,42.4,27.9,28.94,SSE,164,0.0,0.0,56,0.00,,SKC,0.04,VWS V14.00,2013-02-06 02:26:00,
2013-02-05 21:31:00,42.4,27.9,28.94,SSE,164,0.0,0.0,56,0.00,,SKC,0.04,VWS V14.00,2013-02-06 02:31:00,
2013-02-05 21:36:00,42.4,27.9,28.94,SSE,164,0.0,0.0,56,0.00,,SKC,0.04,VWS V14.00,2013-02-06 02:36:00,
2013-02-05 21:41:00,42.4,28.3,28.94,SSE,164,0.0,0.0,57,0.00,,SKC,0.04,VWS V14.00,2013-02-06 02:41:00,
2013-02-05 21:46:00,42.1,28.0,28.94,SSE,164,0.0,0.0,57,0.00,,SKC,0.04,VWS V14.00,2013-02-06 02:46:00,
2013-02-05 21:51:00,41.7,27.6,28.94,SSE,164,0.0,0.0,57,0.00,,SKC,0.04,VWS V14.00,2013-02-06 02:51:00,
2013-02-05 21:56:00,41.5,27.5,28.94,SSE,164,0.0,0.0,57,0.00,,SKC,0.04,VWS V14.00,2013-02-06 02:56:00,
2013-02-05 22:01:00,41.4,27.3,28.94,SSE,164,0.0,0.0,57,0.00,,SKC,0.04,VWS V14.00,2013-02-06 03:01:00,
2013-02-05 22:06:00,41.4,27.3,28.94,SSE,164,0.0,0.0,57,0.00,,SKC,0.04,VWS V14.00,2013-02-06 03:06:00,
2013-02-05 22:11:00,41.2,27.1,28.94,SSE,164,0.0,2.2,57,0.00,,SKC,0.04,VWS V14.00,2013-02-06 03:11:00,
2013-02-05 22:16:00,41.0,27.4,28.94,SSE,164,0.0,2.2,58,0.00,,SKC,0.04,VWS V14.00,2013-02-06 03:16:00,
2013-02-05 22:21:00,40.8,27.6,28.94,SSW,204,0.0,0.0,59,0.00,,SKC,0.04,VWS V14.00,2013-02-06 03:21:00,
2013-02-05 22:26:00,41.0,27.8,28.94,SSW,207,0.0,0.0,59,0.00,,SKC,0.04,VWS V14.00,2013-02-06 03:26:00,
2013-02-05 22:31:00,41.0,27.8,28.94,SSW,202,0.0,0.0,59,0.00,,SKC,0.04,VWS V14.00,2013-02-06 03:31:00,
2013-02-05 22:36:00,41.2,28.4,28.97,SSW,202,0.0,0.0,60,0.00,,SKC,0.04,VWS V14.00,2013-02-06 03:36:00,
2013-02-05 22:41:00,41.5,28.7,28.97,SSW,202,0.0,0.0,60,0.00,,SKC,0.04,VWS V14.00,2013-02-06 03:41:00,
2013-02-05 22:46:00,41.7,29.3,28.97,SSW,202,0.0,0.0,61,0.00,,SKC,0.04,VWS V14.00,2013-02-06 03:46:00,
2013-02-05 22:51:00,41.7,29.3,28.97,SSW,202,0.0,0.0,61,0.00,,SKC,0.04,VWS V14.00,2013-02-06 03:51:00,
2013-02-05 22:56:00,41.9,29.5,28.97,South,190,0.0,0.0,61,0.00,,SKC,0.04,VWS V14.00,2013-02-06 03:56:00,
2013-02-05 23:01:00,41.9,29.5,28.97,SSW,207,0.0,0.0,61,0.00,,SKC,0.04,VWS V14.00,2013-02-06 04:01:00,
2013-02-05 23:06:00,41.9,29.9,28.97,SSW,207,0.0,0.0,62,0.00,,SKC,0.04,VWS V14.00,2013-02-06 04:06:00,
2013-02-05 23:11:00,42.3,30.2,28.97,SW,217,0.0,0.0,62,0.00,,SKC,0.04,VWS V14.00,2013-02-06 04:11:00,
2013-02-05 23:16:00,42.4,30.8,28.97,SW,221,0.0,3.6,63,0.00,,SKC,0.04,VWS V14.00,2013-02-06 04:16:00,
2013-02-05 23:21:00,42.8,31.1,28.97,SSW,209,0.0,0.0,63,0.00,,SKC,0.04,VWS V14.00,2013-02-06 04:21:00,
2013-02-05 23:26:00,43.0,31.3,28.97,SSW,209,0.0,3.1,63,0.00,,SKC,0.04,VWS V14.00,2013-02-06 04:26:00,
2013-02-05 23:31:00,43.2,31.4,28.97,SSW,210,0.0,0.0,63,0.00,,SKC,0.04,VWS V14.00,2013-02-06 04:31:00,
2013-02-05 23:36:00,43.2,31.4,28.97,SSW,210,0.0,0.0,63,0.00,,SKC,0.04,VWS V14.00,2013-02-06 04:36:00,
2013-02-05 23:41:00,43.3,31.6,28.97,SSW,213,0.0,0.0,63,0.00,,SKC,0.04,VWS V14.00,2013-02-06 04:41:00,
2013-02-05 23:46:00,43.3,32.0,28.97,SSW,213,0.0,0.0,64,0.00,,SKC,0.04,VWS V14.00,2013-02-06 04:46:00,
2013-02-05 23:51:00,43.5,32.2,28.97,SSW,213,0.0,0.0,64,0.00,,SKC,0.04,VWS V14.00,2013-02-06 04:51:00,
2013-02-05 23:56:00,43.5,32.2,28.97,South,188,0.0,0.0,64,0.00,,SKC,0.04,VWS V14.00,2013-02-06 04:56:00,